CAPE
0 0 0 0 0 0 0 0 0 0 0 0 0 0 0 0 0 0 0 0 0 0 6 203 237 140 257 300 410 280 287 185 222 232 103 43 7 13 9 1 0 0 1 21 9 0 0 31 2 30 16 18 29 1
5 3 3 0 0 0 0 0 0 0 0 0 0 0 0 0 0 0 0 0 0 0 0 50 180 169 92 162 162 245 206 173 225 186 100 76 28 8 5 0 41 0 0 43 124 75 21 19 4 12 45 57 13 0
21 19 11 8 1 0 0 0 0 0 0 0 0 0 0 0 0 0 0 0 0 0 0 0 0 9 37 30 59 85 89 60 162 168 96 96 90 51 17 0 3 113 18 173 36 81 48 63 39 61 74 29 0 0
11 5 0 2 8 6 0 0 0 0 0 0 0 0 0 0 0 0 0 0 0 0 0 0 0 0 1 0 1 43 20 0 16 34 76 75 65 1 0 0 0 131 32 116 61 48 73 66 26 14 10 0 0 0
0 0 1 1 3 0 0 0 0 0 0 0 0 0 0 0 0 0 0 0 0 0 0 0 0 0 0 0 0 0 16 31 29 21 30 17 15 0 0 0 0 0 0 7 85 95 53 13 3 5 0 0 0 0
0 0 0 0 0 0 0 0 0 0 0 0 0 0 0 0 0 0 0 0 0 0 0 0 0 0 0 0 0 0 0 0 0 0 0 0 0 0 0 0 0 91 147 232 105 21 28 57 16 1 0 0 0 0
0 0 0 0 0 0 0 0 3 0 0 0 0 0 0 0 0 0 0 0 0 0 0 0 0 0 0 0 0 0 0 0 0 0 0 0 0 0 0 0 0 4 17 47 40 15 5 2 0 0 0 0 0 0
0 0 0 0 0 0 0 0 0 0 0 0 0 0 0 0 0 0 0 0 0 0 0 0 0 0 0 0 0 0 0 0 0 0 0 0 0 0 0 0 0 0 0 0 0 0 0 0 0 0 0 0 0 0
0 0 0 0 0 0 0 0 0 0 0 0 0 0 0 0 0 0 0 0 0 0 0 0 0 0 0 0 0 0 0 0 0 0 0 0 0 0 0 0 0 0 0 0 0 0 0 0 0 0 0 0 0 0
0 0 0 0 0 0 0 0 0 0 0 0 0 0 0 0 0 0 0 0 0 0 0 0 0 0 0 0 0 0 0 0 0 0 1 0 0 16 5 0 0 0 0 0 0 0 0 0 0 0 0 0 0 0
0 0 0 0 0 0 0 0 0 4 0 0 0 9 0 0 0 0 0 0 0 0 0 0 0 0 0 0 0 0 1 5 4 9 3 2 251 528 60 27 17 11 6 1 0 0 0 0 0 0 0 5 5 3
0 0 0 0 0 0 0 0 0 0 0 0 5 23 6 0 0 0 0 0 0 0 8 5 0 0 0 8 46 21 9 4 21 60 115 149 392 202 141 103 51 29 14 7 1 0 0 2 9 13 14 8 10 13
0 0 0 0 0 0 0 0 0 0 0 16 4 36 0 0 0 0 0 0 0 7 25 3 0 7 2 2 27 73 21 24 25 34 39 272 246 154 97 58 64 28 33 9 8 0 2 19 26 31 23 27 20 23
0 0 0 0 0 0 0 0 1 0 20 9 10 0 0 0 0 0 0 0 41 28 50 46 20 0 0 0 21 39 60 35 35 29 13 271 154 90 71 59 63 20 3 4 9 0 19 28 27 36 44 39 21 10
0 0 0 0 0 0 0 0 0 26 13 31 22 6 0 0 0 0 4 18 14 11 24 32 19 42 29 24 37 53 64 48 45 61 159 133 112 71 79 53 14 4 6 0 15 23 22 22 16 6 1 2 3 0
0 0 0 0 0 0 0 0 13 29 13 47 21 7 10 0 2 14 17 5 16 19 36 36 35 40 41 25 34 64 42 50 63 94 116 75 39 15 33 11 0 43 22 27 42 51 49 47 44 33 38 23 15 10
0 0 40 0 0 0 0 7 13 20 32 14 8 0 15 11 20 1 13 10 18 35 51 42 18 20 22 27 37 38 37 48 112 116 99 90 75 49 10 0 0 0 50 20 1 0 0 18 38 38 52 66 24 62
0 0 12 0 0 0 13 19 13 34 2 14 22 21 27 5 8 15 14 2 18 43 46 14 35 58 39 27 33 25 19 25 81 121 102 126 98 55 67 94 84 47 18 21 75 34 19 11 15 15 10 27 45 99
0 0 15 0 4 8 12 22 6 3 0 0 9 17 27 12 6 13 2 15 20 22 33 26 25 27 2 3 3 6 3 8 22 16 26 22 55 2 3 0 12 29 81 9 32 70 36 16 6 6 3 11 4 9
0 0 0 5 7 18 16 30 2 0 0 21 49 36 33 9 25 27 24 7 7 27 29 45 26 14 5 1 3 0 17 10 16 15 8 32 13 7 0 0 0 0 0 0 3 25 43 29 23 19 16 15 20 26
0 0 0 14 22 33 18 10 0 0 0 9 33 43 22 20 40 28 19 6 0 16 35 23 18 14 28 40 19 10 6 10 0 0 4 4 9 21 0 0 4 4 0 0 10 23 61 80 41 39 20 19 15 13
24 13 11 17 29 2 1 1 18 30 8 4 29 16 24 23 13 5 7 24 11 30 76 46 31 42 20 5 0 9 29 37 42 50 69 64 51 75 71 54 20 45 56 39 23 24 43 38 42 22 10 21 20 25
34 20 12 19 6 2 0 6 29 32 20 22 30 18 6 1 4 13 7 49 57 134 118 67 66 65 34 38 12 2 13 102 35 24 37 26 32 54 24 5 49 43 32 37 24 18 17 18 25 20 12 12 14 10
26 21 10 45 4 0 0 5 10 32 18 12 11 18 25 30 34 9 16 41 105 108 65 48 33 31 27 31 21 34 16 18 29 52 38 23 26 37 51 39 46 32 35 26 24 22 20 34 18 35 17 3 1 8
20 34 2 4 3 7 26 9 28 81 35 16 14 22 38 16 11 21 25 35 46 36 61 68 58 27 12 28 32 34 18 48 50 33 32 44 29 26 36 22 21 25 22 15 13 28 1 5 8 51 24 3 8 3
1 0 0 4 19 0 42 42 38 40 1 20 23 24 65 22 22 34 20 33 30 40 29 27 23 19 10 30 25 25 27 37 31 25 7 3 0 0 0 0 2 9 8 0 0 0 0 0 0 23 7 2 3 12
9 2 1 0 6 15 18 20 9 21 25 25 43 43 29 16 14 3 15 22 33 0 25 16 21 21 27 28 30 19 1 1 4 8 10 0 0 0 0 0 0 0 0 0 0 0 0 3 1 18 32 28 12 9
21 5 7 14 31 8 9 1 34 36 7 9 26 35 38 2 0 7 0 34 24 30 11 10 4 15 18 13 17 12 4 0 0 0 0 0 0 0 0 0 0 0 0 0 0 0 2 0 0 6 11 8 5 22
4 15 26 20 19 7 0 0 19 14 2 21 23 35 36 8 0 0 6 10 24 23 14 5 5 13 27 10 0 10 5 0 0 0 0 0 0 0 0 0 0 0 0 0 0 0 0 0 0 0 18 37 40 23
2 14 15 1 0 0 1 2 8 22 29 19 6 0 0 3 5 14 11 8 3 0 1 0 0 5 2 14 0 0 0 0 0 0 0 0 0 0 0 0 0 0 0 0 0 0 0 0 0 0 0 6 14 26
0 10 23 0 2 6 15 47 40 34 17 41 9 14 0 0 3 5 1 0 0 0 0 0 0 0 0 0 0 0 0 0 0 0 0 0 0 0 0 0 0 0 0 0 0 0 0 0 0 0 1 4 0 0
2 0 0 20 30 38 23 29 1 10 15 24 0 21 18 0 0 0 0 0 0 0 0 0 0 0 0 0 0 0 0 0 0 0 0 0 0 0 0 0 0 0 0 0 0 0 0 0 0 3 8 11 10 10
1 2 5 13 23 27 32 37 8 0 0 4 0 8 0 0 0 0 3 24 17 10 0 0 0 0 0 0 0 0 0 0 0 0 0 0 0 0 0 0 0 0 0 0 0 0 0 0 0 0 0 0 6 38
CIN
0 -3 0 0 0 0 0 0 0 0 0 0 0 0 0 0 0 0 0 0 0 0 -110 -66 -66 -76 -89 -54 -37 -62 -59 -32 -58 -50 -47 -11 -17 -40 -43 -7 0 0 -23 -42 -62 0 -30 -169 -9 -26 -8 -15 -88 -18
0 0 0 0 0 0 0 0 0 0 0 0 0 0 0 0 0 0 0 0 0 0 0 -137 -64 -65 -68 -90 -57 -35 -47 -41 -39 -37 -34 -38 -52 -32 -40 -2 -99 -1 0 -65 -48 -36 -110 -134 -17 -25 -18 -19 -11 0
0 0 0 0 0 0 0 0 0 0 0 0 0 0 0 0 0 0 0 0 0 0 0 0 0 -36 -82 -71 -80 -56 -32 -59 -56 -44 -36 -35 -29 -45 -22 -1 -32 -45 -113 -77 -91 -143 -136 -83 -134 -113 -75 -72 0 0
-1 0 0 -2 -1 -1 0 0 0 0 0 0 0 0 0 0 0 0 0 0 0 0 0 0 0 0 -54 0 -115 -46 -64 0 -43 -26 -31 -21 -13 -11 0 0 0 -30 -45 -51 -94 -107 -129 -142 -165 -175 -189 -13 0 0
0 0 -3 -1 -1 -10 0 0 0 0 0 0 0 0 0 0 0 0 0 0 0 0 0 0 0 0 0 0 0 -2 -56 -34 -51 -37 -42 -26 -22 0 0 0 0 0 0 -19 -86 -115 -113 -167 -100 -153 0 0 0 0
0 0 0 0 0 0 0 0 0 0 0 0 0 0 0 0 0 0 0 0 0 0 0 0 0 0 0 0 0 0 0 0 0 0 0 0 0 0 0 0 0 -91 -60 -43 -50 -53 -74 -61 -101 -98 0 0 0 0
0 0 0 0 0 0 0 0 -5 0 0 0 0 0 0 0 0 0 0 0 0 0 0 0 0 0 0 0 0 0 0 0 0 0 0 0 0 0 0 0 0 -109 -133 -97 -49 -81 -47 -25 0 0 0 0 0 0
0 0 0 0 0 0 0 0 0 0 0 0 0 0 0 0 0 0 0 0 0 0 0 0 0 0 0 0 0 0 0 0 0 0 0 0 0 0 0 0 0 0 0 0 0 0 0 0 0 0 0 0 0 0
0 0 0 0 0 0 0 0 0 0 0 0 0 0 0 0 0 0 0 0 0 0 0 0 0 0 0 0 0 0 0 0 0 0 0 0 0 0 0 0 0 0 0 0 0 0 0 0 0 0 0 0 0 0
0 0 0 0 0 0 0 0 0 0 0 0 0 0 0 0 0 0 0 0 0 0 0 0 0 0 0 0 0 0 0 0 0 0 -2 0 0 -16 -3 0 0 0 0 0 0 0 0 0 0 0 0 0 0 0
0 0 0 0 0 0 0 0 0 -7 0 0 -12 -10 -1 0 0 0 0 0 0 0 0 0 0 0 0 0 0 -9 -6 -29 -3 -10 -2 -7 -43 -67 -61 -73 -61 -62 -47 -16 0 0 0 0 0 0 -2 -10 -6 -1
0 0 0 0 0 0 0 0 0 -1 -1 0 -18 -7 -6 0 0 0 0 0 0 0 -47 -40 0 0 0 -75 -22 -14 -12 -6 -17 -3 -9 -39 -58 -24 -30 -25 -34 -24 -16 -2 -4 0 0 -2 -16 -10 -8 -7 -7 -8
0 0 0 0 0 0 0 0 0 0 0 -3 -1 0 0 0 0 0 0 0 -1 -17 -14 -8 0 -57 -28 -15 -15 -23 -4 -18 -43 -5 -18 -59 -84 -24 -29 -20 -12 -4 -2 -6 -76 0 -7 -11 -5 -5 -11 -5 -6 -6
0 0 0 0 0 0 0 0 0 0 0 0 0 0 0 0 0 0 0 0 -1 -11 -4 -3 -8 -1 0 0 -24 -11 -27 -24 -13 -11 -14 -45 -40 -33 -23 -9 -3 -2 -59 -78 -34 0 -15 -9 -12 -11 -8 -2 -12 -10
0 0 0 0 0 0 0 0 0 0 -1 -6 -31 0 0 0 0 0 -4 -15 -3 -2 -9 -10 -5 -22 -8 -9 -8 -19 -16 -17 -10 -19 -43 -30 -18 -13 -5 -1 -3 -56 -96 0 -49 -15 -8 -6 -6 -6 -7 -4 -18 0
0 0 0 0 0 0 0 -1 -1 0 0 -2 -9 0 -2 0 -1 -1 -3 -3 -1 -37 -30 -12 -10 -11 -7 -12 -3 -11 -11 -13 -18 -29 -23 -46 -5 -8 0 -3 0 -62 -55 -50 -60 -35 -24 -6 -5 -5 -4 -7 -7 0
0 0 -3 0 0 0 0 -1 -4 -5 0 -1 0 0 0 0 0 -1 -3 -11 -17 -3 -4 -8 -7 -16 -9 -7 -1 0 -5 -24 -39 -22 -25 -17 -19 -21 -38 -14 0 0 -39 -31 -3 0 -2 -5 -2 -3 -3 -4 -9 -19
0 0 -4 0 0 0 -5 -1 -2 -8 -20 -42 -7 -2 -6 -28 -2 0 0 -9 -13 -17 -33 -9 -18 -18 -10 -9 -1 -13 -42 -52 -27 -22 -22 -22 -17 -18 -20 -23 -6 -11 -12 -15 -16 -9 -7 -11 -27 -38 -39 -58 -74 -50
0 0 -1 0 -4 -2 0 0 -1 0 0 0 -33 -8 -6 -10 -5 -4 -1 -8 -13 -41 -29 -25 -32 -23 -6 -12 -12 -9 -32 -15 -1 -1 -3 -30 -24 -1 -1 -8 -41 -17 -13 -11 -43 -32 -21 -36 -44 -33 -12 -34 -36 -2
0 0 0 0 0 -6 0 -1 -1 0 0 -17 -12 -9 -25 -14 -4 -4 -5 -8 -13 -35 -8 -5 -15 -21 0 0 -12 0 0 -53 -42 -1 -1 -41 -38 -2 -1 0 0 0 0 0 -35 -37 -21 -12 -25 -25 -23 -12 -15 -93
0 0 0 -1 -1 -1 0 -3 -1 0 0 -15 -21 -8 -13 -9 -36 -14 0 -18 0 -8 -4 -12 -29 -23 -38 -50 -60 -63 -69 -66 0 -1 -98 -106 -79 -49 0 0 -12 -15 0 0 -15 -11 -78 -37 -27 -22 -24 -21 -15 -125
0 0 0 0 0 -2 -3 0 -4 -4 -22 -33 -32 -48 -16 -10 -9 -10 -13 -11 -9 -20 -24 -48 -50 -41 -47 -65 0 -61 -48 -42 -22 -29 -25 -16 -13 -14 -16 -26 -32 -18 -12 -14 -14 -24 -6 -22 -31 -56 -45 -44 -53 -91
-1 -3 0 -1 -1 -3 0 -10 -14 -19 -14 -13 -13 -3 -1 -6 -18 -16 -12 -14 -11 -28 -42 -43 -37 -31 -28 -22 -21 -13 -29 -26 -22 -38 -33 -49 -64 -18 -16 -34 -24 -15 -22 -10 -3 -1 -14 -19 -22 -11 -5 -19 -8 -38
-11 0 -3 0 -5 0 0 -13 -23 -23 -15 -5 -1 -7 -4 -7 -10 -2 -9 -8 -14 -27 -24 -20 -19 -10 -5 -6 -8 -15 -49 -36 -39 -23 -16 -18 -20 -14 -23 -17 -29 -16 -9 -15 -3 -2 0 -2 -51 -28 -2 -1 -1 -7
-12 -15 -21 -3 -6 -1 -12 -8 -7 -1 -25 -21 -6 -9 -5 -10 -19 -8 -10 -9 -10 -16 -19 -8 -5 -4 -21 -23 -10 -42 -5 -13 -25 -9 -13 -10 -2 -2 -2 -4 -1 -3 -8 -2 -5 -2 -19 -27 -55 -23 -16 -31 -31 -28
-1 0 0 -3 -1 0 -8 -4 -10 -41 -47 -19 -9 -14 -17 -11 -9 -15 -17 -22 -40 -56 -19 -49 -38 -29 -3 -58 -43 -17 -13 -12 -2 -39 -21 -12 -1 0 0 -1 -8 -6 -2 0 0 0 0 0 -6 -42 -6 -17 -35 -38
-2 0 0 0 -2 -3 -5 -16 0 -31 -8 -7 -19 -17 -8 -2 0 -1 -1 -5 -8 0 -39 -23 -48 -16 -4 -5 -12 -51 0 -1 -2 -1 0 0 0 0 0 0 0 0 0 0 0 0 -2 0 -24 -47 -44 -47 -34 -17
-5 -19 -16 -11 -1 -11 -7 -1 -9 -5 -6 -16 -24 -33 -10 -1 0 -1 0 -9 -11 -71 -103 -12 -9 -1 0 -2 0 -1 0 0 0 0 0 0 0 0 0 0 0 0 0 0 0 0 0 0 0 -68 -34 0 -47 -24
0 -2 -6 -3 -10 -2 0 0 -3 -29 -9 -53 -14 -2 -2 0 0 0 -1 0 -2 0 -1 -1 -5 0 0 0 0 -1 0 0 0 0 0 0 0 0 0 0 0 0 0 0 0 0 0 0 0 0 -11 -42 0 -38
0 -11 -6 -10 0 0 -5 -18 -20 -18 -43 -29 -15 0 0 0 0 0 0 0 -1 0 0 0 0 0 0 -1 0 0 0 0 0 0 0 0 0 0 0 0 0 0 0 0 0 0 0 0 0 0 0 -11 -15 -5
0 0 -11 0 0 -1 -1 -3 -35 -12 -13 -1 -1 0 0 0 0 0 0 0 0 0 0 0 0 0 0 0 0 0 0 0 0 0 0 0 0 0 0 0 0 0 0 0 0 0 0 0 0 0 -1 -2 0 -2
-4 0 0 -8 -16 -2 -14 -15 0 -1 -2 -4 0 0 0 0 0 0 0 0 0 0 0 0 0 0 0 0 0 0 0 0 0 0 0 0 0 0 0 0 0 0 0 0 0 0 0 0 0 0 0 0 0 0
-2 -17 -21 -1 -7 -4 -17 -28 -1 0 0 0 0 0 0 0 0 0 -5 -48 -43 -35 0 0 0 0 0 0 0 0 0 0 0 0 0 0 0 0 0 0 0 0 0 0 0 0 0 0 0 0 0 0 -4 -1
Wind_Speed
nan nan nan nan nan nan nan nan nan nan nan nan nan nan nan nan nan nan nan nan nan nan nan 27 27 28 31 29 28 24 35 36 35 39 33 nan nan nan nan nan nan nan nan nan nan nan nan nan nan nan nan nan nan nan
nan nan nan nan nan nan nan nan nan nan nan nan nan nan nan nan nan nan nan nan nan nan nan nan 20 17 nan 13 24 25 26 26 27 38 37 nan nan nan nan nan nan nan nan nan 31 nan nan nan nan nan nan nan nan nan
nan nan nan nan nan nan nan nan nan nan nan nan nan nan nan nan nan nan nan nan nan nan nan nan nan nan nan nan nan nan nan nan 26 20 nan nan nan nan nan nan nan 26 nan 28 nan nan nan nan nan nan nan nan nan nan
nan nan nan nan nan nan nan nan nan nan nan nan nan nan nan nan nan nan nan nan nan nan nan nan nan nan nan nan nan nan nan nan nan nan nan nan nan nan nan nan nan 26 nan 27 nan nan nan nan nan nan nan nan nan nan
nan nan nan nan nan nan nan nan nan nan nan nan nan nan nan nan nan nan nan nan nan nan nan nan nan nan nan nan nan nan nan nan nan nan nan nan nan nan nan nan nan nan nan nan nan nan nan nan nan nan nan nan nan nan
nan nan nan nan nan nan nan nan nan nan nan nan nan nan nan nan nan nan nan nan nan nan nan nan nan nan nan nan nan nan nan nan nan nan nan nan nan nan nan nan nan nan 28 24 24 nan nan nan nan nan nan nan nan nan
nan nan nan nan nan nan nan nan nan nan nan nan nan nan nan nan nan nan nan nan nan nan nan nan nan nan nan nan nan nan nan nan nan nan nan nan nan nan nan nan nan nan nan nan nan nan nan nan nan nan nan nan nan nan
nan nan nan nan nan nan nan nan nan nan nan nan nan nan nan nan nan nan nan nan nan nan nan nan nan nan nan nan nan nan nan nan nan nan nan nan nan nan nan nan nan nan nan nan nan nan nan nan nan nan nan nan nan nan
nan nan nan nan nan nan nan nan nan nan nan nan nan nan nan nan nan nan nan nan nan nan nan nan nan nan nan nan nan nan nan nan nan nan nan nan nan nan nan nan nan nan nan nan nan nan nan nan nan nan nan nan nan nan
nan nan nan nan nan nan nan nan nan nan nan nan nan nan nan nan nan nan nan nan nan nan nan nan nan nan nan nan nan nan nan nan nan nan nan nan nan nan nan nan nan nan nan nan nan nan nan nan nan nan nan nan nan nan
nan nan nan nan nan nan nan nan nan nan nan nan nan nan nan nan nan nan nan nan nan nan nan nan nan nan nan nan nan nan nan nan nan nan nan nan 20 19 nan nan nan nan nan nan nan nan nan nan nan nan nan nan nan nan
nan nan nan nan nan nan nan nan nan nan nan nan nan nan nan nan nan nan nan nan nan nan nan nan nan nan nan nan nan nan nan nan nan nan 19 22 18 18 23 25 nan nan nan nan nan nan nan nan nan nan nan nan nan nan
nan nan nan nan nan nan nan nan nan nan nan nan nan nan nan nan nan nan nan nan nan nan nan nan nan nan nan nan nan nan nan nan nan nan nan 17 15 21 nan nan nan nan nan nan nan nan nan nan nan nan nan nan nan nan
nan nan nan nan nan nan nan nan nan nan nan nan nan nan nan nan nan nan nan nan nan nan nan nan nan nan nan nan nan nan nan nan nan nan nan 13 15 nan nan nan nan nan nan nan nan nan nan nan nan nan nan nan nan nan
nan nan nan nan nan nan nan nan nan nan nan nan nan nan nan nan nan nan nan nan nan nan nan nan nan nan nan nan nan nan nan nan nan nan 14 15 17 nan nan nan nan nan nan nan nan nan nan nan nan nan nan nan nan nan
nan nan nan nan nan nan nan nan nan nan nan nan nan nan nan nan nan nan nan nan nan nan nan nan nan nan nan nan nan nan nan nan nan nan 16 nan nan nan nan nan nan nan nan nan nan nan nan nan nan nan nan nan nan nan
nan nan nan nan nan nan nan nan nan nan nan nan nan nan nan nan nan nan nan nan nan nan nan nan nan nan nan nan nan nan nan nan 14 19 nan nan nan nan nan nan nan nan nan nan nan nan nan nan nan nan nan nan nan nan
nan nan nan nan nan nan nan nan nan nan nan nan nan nan nan nan nan nan nan nan nan nan nan nan nan nan nan nan nan nan nan nan nan 21 16 20 nan nan nan nan nan nan nan nan nan nan nan nan nan nan nan nan nan nan
nan nan nan nan nan nan nan nan nan nan nan nan nan nan nan nan nan nan nan nan nan nan nan nan nan nan nan nan nan nan nan nan nan nan nan nan nan nan nan nan nan nan nan nan nan nan nan nan nan nan nan nan nan nan
nan nan nan nan nan nan nan nan nan nan nan nan nan nan nan nan nan nan nan nan nan nan nan nan nan nan nan nan nan nan nan nan nan nan nan nan nan nan nan nan nan nan nan nan nan nan nan nan nan nan nan nan nan nan
nan nan nan nan nan nan nan nan nan nan nan nan nan nan nan nan nan nan nan nan nan nan nan nan nan nan nan nan nan nan nan nan nan nan nan nan nan nan nan nan nan nan nan nan nan nan nan nan nan nan nan nan nan nan
nan nan nan nan nan nan nan nan nan nan nan nan nan nan nan nan nan nan nan nan nan nan nan nan nan nan nan nan nan nan nan nan nan nan nan nan nan nan nan nan nan nan nan nan nan nan nan nan nan nan nan nan nan nan
nan nan nan nan nan nan nan nan nan nan nan nan nan nan nan nan nan nan nan nan nan 15 19 nan nan nan nan nan nan nan nan 19 nan nan nan nan nan nan nan nan nan nan nan nan nan nan nan nan nan nan nan nan nan nan
nan nan nan nan nan nan nan nan nan nan nan nan nan nan nan nan nan nan nan nan 13 15 nan nan nan nan nan nan nan nan nan nan nan nan nan nan nan nan nan nan nan nan nan nan nan nan nan nan nan nan nan nan nan nan
nan nan nan nan nan nan nan nan nan nan nan nan nan nan nan nan nan nan nan nan nan nan nan nan nan nan nan nan nan nan nan nan nan nan nan nan nan nan nan nan nan nan nan nan nan nan nan nan nan nan nan nan nan nan
nan nan nan nan nan nan nan nan nan nan nan nan nan nan nan nan nan nan nan nan nan nan nan nan nan nan nan nan nan nan nan nan nan nan nan nan nan nan nan nan nan nan nan nan nan nan nan nan nan nan nan nan nan nan
nan nan nan nan nan nan nan nan nan nan nan nan nan nan nan nan nan nan nan nan nan nan nan nan nan nan nan nan nan nan nan nan nan nan nan nan nan nan nan nan nan nan nan nan nan nan nan nan nan nan nan nan nan nan
nan nan nan nan nan nan nan nan nan nan nan nan nan nan nan nan nan nan nan nan nan nan nan nan nan nan nan nan nan nan nan nan nan nan nan nan nan nan nan nan nan nan nan nan nan nan nan nan nan nan nan nan nan nan
nan nan nan nan nan nan nan nan nan nan nan nan nan nan nan nan nan nan nan nan nan nan nan nan nan nan nan nan nan nan nan nan nan nan nan nan nan nan nan nan nan nan nan nan nan nan nan nan nan nan nan nan nan nan
nan nan nan nan nan nan nan nan nan nan nan nan nan nan nan nan nan nan nan nan nan nan nan nan nan nan nan nan nan nan nan nan nan nan nan nan nan nan nan nan nan nan nan nan nan nan nan nan nan nan nan nan nan nan
nan nan nan nan nan nan nan nan nan nan nan nan nan nan nan nan nan nan nan nan nan nan nan nan nan nan nan nan nan nan nan nan nan nan nan nan nan nan nan nan nan nan nan nan nan nan nan nan nan nan nan nan nan nan
nan nan nan nan nan nan nan nan nan nan nan nan nan nan nan nan nan nan nan nan nan nan nan nan nan nan nan nan nan nan nan nan nan nan nan nan nan nan nan nan nan nan nan nan nan nan nan nan nan nan nan nan nan nan
nan nan nan nan nan nan nan nan nan nan nan nan nan nan nan nan nan nan nan nan nan nan nan nan nan nan nan nan nan nan nan nan nan nan nan nan nan nan nan nan nan nan nan nan nan nan nan nan nan nan nan nan nan nan
Wind_Direction
nan nan nan nan nan nan nan nan nan nan nan nan nan nan nan nan nan nan nan nan nan nan nan 221 221 227 221 231 239 235 249 238 233 236 247 nan nan nan nan nan nan nan nan nan nan nan nan nan nan nan nan nan nan nan
nan nan nan nan nan nan nan nan nan nan nan nan nan nan nan nan nan nan nan nan nan nan nan nan 196 184 nan 240 238 230 257 247 248 237 234 nan nan nan nan nan nan nan nan nan 282 nan nan nan nan nan nan nan nan nan
nan nan nan nan nan nan nan nan nan nan nan nan nan nan nan nan nan nan nan nan nan nan nan nan nan nan nan nan nan nan nan nan 219 240 nan nan nan nan nan nan nan 252 nan 261 nan nan nan nan nan nan nan nan nan nan
nan nan nan nan nan nan nan nan nan nan nan nan nan nan nan nan nan nan nan nan nan nan nan nan nan nan nan nan nan nan nan nan nan nan nan nan nan nan nan nan nan 262 nan 265 nan nan nan nan nan nan nan nan nan nan
nan nan nan nan nan nan nan nan nan nan nan nan nan nan nan nan nan nan nan nan nan nan nan nan nan nan nan nan nan nan nan nan nan nan nan nan nan nan nan nan nan nan nan nan nan nan nan nan nan nan nan nan nan nan
nan nan nan nan nan nan nan nan nan nan nan nan nan nan nan nan nan nan nan nan nan nan nan nan nan nan nan nan nan nan nan nan nan nan nan nan nan nan nan nan nan nan 251 271 285 nan nan nan nan nan nan nan nan nan
nan nan nan nan nan nan nan nan nan nan nan nan nan nan nan nan nan nan nan nan nan nan nan nan nan nan nan nan nan nan nan nan nan nan nan nan nan nan nan nan nan nan nan nan nan nan nan nan nan nan nan nan nan nan
nan nan nan nan nan nan nan nan nan nan nan nan nan nan nan nan nan nan nan nan nan nan nan nan nan nan nan nan nan nan nan nan nan nan nan nan nan nan nan nan nan nan nan nan nan nan nan nan nan nan nan nan nan nan
nan nan nan nan nan nan nan nan nan nan nan nan nan nan nan nan nan nan nan nan nan nan nan nan nan nan nan nan nan nan nan nan nan nan nan nan nan nan nan nan nan nan nan nan nan nan nan nan nan nan nan nan nan nan
nan nan nan nan nan nan nan nan nan nan nan nan nan nan nan nan nan nan nan nan nan nan nan nan nan nan nan nan nan nan nan nan nan nan nan nan nan nan nan nan nan nan nan nan nan nan nan nan nan nan nan nan nan nan
nan nan nan nan nan nan nan nan nan nan nan nan nan nan nan nan nan nan nan nan nan nan nan nan nan nan nan nan nan nan nan nan nan nan nan nan 231 227 nan nan nan nan nan nan nan nan nan nan nan nan nan nan nan nan
nan nan nan nan nan nan nan nan nan nan nan nan nan nan nan nan nan nan nan nan nan nan nan nan nan nan nan nan nan nan nan nan nan nan 244 246 244 249 250 248 nan nan nan nan nan nan nan nan nan nan nan nan nan nan
nan nan nan nan nan nan nan nan nan nan nan nan nan nan nan nan nan nan nan nan nan nan nan nan nan nan nan nan nan nan nan nan nan nan nan 248 241 239 nan nan nan nan nan nan nan nan nan nan nan nan nan nan nan nan
nan nan nan nan nan nan nan nan nan nan nan nan nan nan nan nan nan nan nan nan nan nan nan nan nan nan nan nan nan nan nan nan nan nan nan 230 238 nan nan nan nan nan nan nan nan nan nan nan nan nan nan nan nan nan
nan nan nan nan nan nan nan nan nan nan nan nan nan nan nan nan nan nan nan nan nan nan nan nan nan nan nan nan nan nan nan nan nan nan 240 237 236 nan nan nan nan nan nan nan nan nan nan nan nan nan nan nan nan nan
nan nan nan nan nan nan nan nan nan nan nan nan nan nan nan nan nan nan nan nan nan nan nan nan nan nan nan nan nan nan nan nan nan nan 243 nan nan nan nan nan nan nan nan nan nan nan nan nan nan nan nan nan nan nan
nan nan nan nan nan nan nan nan nan nan nan nan nan nan nan nan nan nan nan nan nan nan nan nan nan nan nan nan nan nan nan nan 241 240 nan nan nan nan nan nan nan nan nan nan nan nan nan nan nan nan nan nan nan nan
nan nan nan nan nan nan nan nan nan nan nan nan nan nan nan nan nan nan nan nan nan nan nan nan nan nan nan nan nan nan nan nan nan 252 245 238 nan nan nan nan nan nan nan nan nan nan nan nan nan nan nan nan nan nan
nan nan nan nan nan nan nan nan nan nan nan nan nan nan nan nan nan nan nan nan nan nan nan nan nan nan nan nan nan nan nan nan nan nan nan nan nan nan nan nan nan nan nan nan nan nan nan nan nan nan nan nan nan nan
nan nan nan nan nan nan nan nan nan nan nan nan nan nan nan nan nan nan nan nan nan nan nan nan nan nan nan nan nan nan nan nan nan nan nan nan nan nan nan nan nan nan nan nan nan nan nan nan nan nan nan nan nan nan
nan nan nan nan nan nan nan nan nan nan nan nan nan nan nan nan nan nan nan nan nan nan nan nan nan nan nan nan nan nan nan nan nan nan nan nan nan nan nan nan nan nan nan nan nan nan nan nan nan nan nan nan nan nan
nan nan nan nan nan nan nan nan nan nan nan nan nan nan nan nan nan nan nan nan nan nan nan nan nan nan nan nan nan nan nan nan nan nan nan nan nan nan nan nan nan nan nan nan nan nan nan nan nan nan nan nan nan nan
nan nan nan nan nan nan nan nan nan nan nan nan nan nan nan nan nan nan nan nan nan 229 251 nan nan nan nan nan nan nan nan 268 nan nan nan nan nan nan nan nan nan nan nan nan nan nan nan nan nan nan nan nan nan nan
nan nan nan nan nan nan nan nan nan nan nan nan nan nan nan nan nan nan nan nan 212 217 nan nan nan nan nan nan nan nan nan nan nan nan nan nan nan nan nan nan nan nan nan nan nan nan nan nan nan nan nan nan nan nan
nan nan nan nan nan nan nan nan nan nan nan nan nan nan nan nan nan nan nan nan nan nan nan nan nan nan nan nan nan nan nan nan nan nan nan nan nan nan nan nan nan nan nan nan nan nan nan nan nan nan nan nan nan nan
nan nan nan nan nan nan nan nan nan nan nan nan nan nan nan nan nan nan nan nan nan nan nan nan nan nan nan nan nan nan nan nan nan nan nan nan nan nan nan nan nan nan nan nan nan nan nan nan nan nan nan nan nan nan
nan nan nan nan nan nan nan nan nan nan nan nan nan nan nan nan nan nan nan nan nan nan nan nan nan nan nan nan nan nan nan nan nan nan nan nan nan nan nan nan nan nan nan nan nan nan nan nan nan nan nan nan nan nan
nan nan nan nan nan nan nan nan nan nan nan nan nan nan nan nan nan nan nan nan nan nan nan nan nan nan nan nan nan nan nan nan nan nan nan nan nan nan nan nan nan nan nan nan nan nan nan nan nan nan nan nan nan nan
nan nan nan nan nan nan nan nan nan nan nan nan nan nan nan nan nan nan nan nan nan nan nan nan nan nan nan nan nan nan nan nan nan nan nan nan nan nan nan nan nan nan nan nan nan nan nan nan nan nan nan nan nan nan
nan nan nan nan nan nan nan nan nan nan nan nan nan nan nan nan nan nan nan nan nan nan nan nan nan nan nan nan nan nan nan nan nan nan nan nan nan nan nan nan nan nan nan nan nan nan nan nan nan nan nan nan nan nan
nan nan nan nan nan nan nan nan nan nan nan nan nan nan nan nan nan nan nan nan nan nan nan nan nan nan nan nan nan nan nan nan nan nan nan nan nan nan nan nan nan nan nan nan nan nan nan nan nan nan nan nan nan nan
nan nan nan nan nan nan nan nan nan nan nan nan nan nan nan nan nan nan nan nan nan nan nan nan nan nan nan nan nan nan nan nan nan nan nan nan nan nan nan nan nan nan nan nan nan nan nan nan nan nan nan nan nan nan
nan nan nan nan nan nan nan nan nan nan nan nan nan nan nan nan nan nan nan nan nan nan nan nan nan nan nan nan nan nan nan nan nan nan nan nan nan nan nan nan nan nan nan nan nan nan nan nan nan nan nan nan nan nan